[[{"header":{"parameterUnit":"m.s-1","parameterCategory":1,"la1":30.2991,"la2":30.254,"lo1":-89.0895,"lo2":-89.0444,"dy":0.0017,"dx":0.0017,"nx":28,"ny":28,"refTime":"2024-08-22T09:00:00:Z","depth":0,"parameterNumber":2,"parameterNumberName":"U-component_of_WINDS"},"data":[0,0,0,0,0,0,0,0,0,0,0,0,0,0,0,0,0,0,0,0,0,0,0,0,0,0,0,0,0,0,0,0,0,0,0,0,0,0,0,0,0,0,0,0,0,0,0,0,0,0,0,0,0,0,0,0,0,0,0.1911,0.1912,0,0.1982,0.1983,0.1984,0.199,0.1989,0.1988,0.1987,0.206,0.2062,0.2065,0,0,0,0,0,0,0,0,0,0,0,0,0,0.1781,0.1783,0.1911,0.1912,0.1913,0.1982,0.1983,0.1984,0.199,0.1989,0.1988,0.1987,0.2059,0.2062,0.2065,0,0,0,0,0,0,0,0,0,0,0,0,0,0.1843,0.1784,0.1911,0.1924,0.1926,0.1982,0.1983,0.1984,0.199,0.1989,0.1988,0.1986,0.2058,0.2062,0.2065,0.2113,0,0,0.2078,0.2079,0,0,0,0,0,0,0,0,0.1839,0.1848,0.1921,0.1923,0.1926,0.1976,0.1963,0.2027,0.199,0.1966,0.1987,0.1986,0.2033,0.2039,0.2054,0.2116,0.2119,0.2078,0.208,0.2082,0.2083,0,0,0,0,0,0,0,0.1835,0.1845,0.1939,0.1922,0.1925,0.1926,0.1934,0.1976,0.2005,0.1968,0.1968,0.1977,0.2034,0.2051,0.2056,0.212,0.2078,0.2081,0.2084,0.2085,0.2224,0.2225,0,0,0,0,0,0,0.1828,0.1841,0.1937,0.1941,0.1879,0.193,0.1938,0.1961,0.2004,0.201,0.1977,0.1977,0.2044,0.2051,0.2059,0.2116,0.2082,0.2086,0.2088,0.2222,0.2224,0.2225,0,0,0,0,0,0,0.1826,0.1837,0.1934,0.1891,0.1904,0.1933,0.1959,0.1963,0.198,0.2012,0.2017,0.1989,0.2044,0.2053,0.2099,0.2118,0.2087,0.2091,0.2221,0.2223,0.2225,0.2231,0,0,0,0,0,0,0.1822,0.1836,0.1854,0.1892,0.1906,0.1973,0.196,0.1965,0.1987,0.1986,0.2024,0.2029,0.2044,0.2093,0.2103,0.2123,0.2094,0.2219,0.2222,0.2224,0.2229,0.2233,0.2236,0,0,0,0,0,0.1817,0.1853,0.1855,0.1866,0.193,0.1974,0.1983,0.1998,0.1988,0.2007,0.2027,0.2028,0.2115,0.2098,0.2109,0.2131,0.2218,0.2221,0.2224,0.2227,0.2232,0.2236,0,0,0,0,0,0,0.1817,0.1858,0.1861,0.191,0.1939,0.1975,0.1999,0.2003,0.2034,0.2033,0.2051,0.2059,0.2104,0.2123,0.2102,0.2178,0.2165,0.2171,0.2164,0.2169,0.2172,0.2166,0.2097,0,0,0,0,0,0.1822,0.1855,0.189,0.193,0.1945,0.1969,0.1989,0.1999,0.2029,0.2041,0.2065,0.2094,0.2128,0.215,0.2183,0.2232,0.224,0.2253,0.2256,0.2259,0.2263,0.2289,0.2295,0.2235,0.2235,0.2235,0,0,0.1834,0.1861,0.1881,0.1931,0.1954,0.1987,0.1979,0.2015,0.204,0.2047,0.2091,0.211,0.2144,0.2191,0.2213,0.2208,0.2281,0.2263,0.2265,0.2267,0.2293,0.2298,0.2303,0.2237,0.2236,0.2236,0,0,0.1873,0.1897,0.1933,0.1956,0.1992,0.2008,0.2017,0.2053,0.2065,0.211,0.2116,0.2146,0.2204,0.2227,0.2247,0.2295,0.2297,0.2305,0.2323,0.2348,0.2353,0.2357,0.2373,0.2378,0.2309,0.2309,0.231,0,0.1883,0.1933,0.195,0.1986,0.2007,0.2016,0.2051,0.2074,0.2118,0.2132,0.2126,0.2198,0.2222,0.2274,0.2286,0.2302,0.2312,0.23,0.2351,0.2355,0.236,0.2375,0.2381,0.231,0.231,0.231,0.231,0,0.1943,0.1979,0.2003,0.2046,0.207,0.2106,0.2128,0.2151,0.2159,0.2175,0.2221,0.225,0.2288,0.2302,0.231,0.2355,0.235,0.2347,0.2334,0.2366,0.238,0.2386,0.2311,0.2311,0.2311,0.231,0,0,0.1982,0.2034,0.2042,0.2061,0.2101,0.2129,0.2165,0.2202,0.2221,0.2252,0.2282,0.2331,0.2328,0.235,0.2361,0.2384,0.2418,0.2378,0.2379,0.2383,0.2468,0.2469,0.2475,0.242,0.2422,0.2423,0.2465,0,0.2023,0.2087,0.2104,0.2158,0.219,0.2199,0.223,0.2258,0.2275,0.2305,0.2324,0.2358,0.2352,0.2366,0.2389,0.2409,0.2435,0.2406,0.2447,0.2448,0.2436,0.2483,0.2484,0.2523,0.2471,0.2472,0.2473,0,0.208,0.2111,0.2169,0.2204,0.2218,0.2246,0.2282,0.2311,0.2342,0.2353,0.2378,0.2387,0.2424,0.2411,0.2462,0.2442,0.246,0.2472,0.2474,0.2477,0.2461,0.2486,0.2536,0.2541,0.2482,0.2481,0.248,0,0.21,0.2157,0.2199,0.2215,0.2258,0.2277,0.2296,0.2326,0.2348,0.2379,0.2393,0.2429,0.2447,0.2474,0.2492,0.2481,0.2542,0.253,0.2551,0.255,0.2561,0.256,0.2613,0.2576,0.2576,0.2576,0.2576,0,0.2143,0.2178,0.2208,0.2233,0.2272,0.2291,0.2329,0.2348,0.2375,0.2404,0.2415,0.2441,0.2464,0.2494,0.2509,0.2548,0.2557,0.2566,0.2569,0.2564,0.2563,0.2574,0.2572,0.2577,0.2577,0.2577,0.2576,0,0.2171,0.2193,0.2239,0.2276,0.2286,0.2313,0.2344,0.2369,0.2387,0.2423,0.2433,0.2461,0.2497,0.2518,0.2563,0.2573,0.2615,0.2618,0.2605,0.2606,0.2624,0.2622,0.2686,0.2694,0.2653,0.2653,0.2654,0,0.2196,0.2223,0.2263,0.2283,0.2302,0.2335,0.2357,0.2377,0.2399,0.2438,0.2457,0.2494,0.2524,0.258,0.2604,0.2639,0.2641,0.2661,0.2646,0.264,0.2639,0.2637,0.2639,0.2663,0.2663,0.2664,0.2664,0,0.2238,0.2248,0.228,0.2315,0.2341,0.237,0.2398,0.2414,0.2439,0.2464,0.25,0.2524,0.257,0.2605,0.2642,0.2661,0.2666,0.2669,0.2675,0.2669,0.2659,0.2663,0.2609,0.2667,0.2667,0.2666,0.2666,0.2666,0.2265,0.2289,0.232,0.2355,0.2379,0.2405,0.243,0.2451,0.2482,0.2521,0.2531,0.2569,0.26,0.265,0.267,0.2699,0.2696,0.2706,0.2708,0.2709,0.2709,0.2656,0.2706,0.2706,0.2706,0.2706,0.2706,0,0.2306,0.2327,0.2359,0.2398,0.2425,0.2429,0.2461,0.2483,0.2517,0.2545,0.2575,0.2616,0.2651,0.2678,0.2713,0.2732,0.2735,0.274,0.2738,0.2742,0.2711,0.2701,0.2737,0.2737,0.2737,0.2737,0.2737,0.2737,0.233,0.237,0.2384,0.2436,0.2457,0.2494,0.2512,0.2536,0.2559,0.2605,0.2634,0.2651,0.2679,0.2717,0.2748,0.2755,0.2767,0.2771,0.2778,0.2748,0.2745,0.2741,0.2732,0.2774,0.2774,0.2807,0.2808,0.2808]},{"header":{"parameterUnit":"m.s-1","parameterCategory":1,"la1":30.2991,"la2":30.254,"lo1":-89.0895,"lo2":-89.0444,"dy":0.0017,"dx":0.0017,"nx":28,"ny":28,"refTime":"2024-08-22T09:00:00:Z","depth":0,"parameterNumber":3,"parameterNumberName":"V-component_of_WINDS"},"data":[0,0,0,0,0,0,0,0,0,0,0,0,0,0,0,0,0,0,0,0,0,0,0,0,0,0,0,0,0,0,0,0,0,0,0,0,0,0,0,0,0,0,0,0,0,0,0,0,0,0,0,0,0,0,0,0,0,0,1.7691,1.7691,0,1.7667,1.7667,1.7667,1.7618,1.7617,1.7616,1.7615,1.7591,1.7591,1.7592,0,0,0,0,0,0,0,0,0,0,0,0,0,1.7695,1.7695,1.7691,1.7691,1.769,1.7667,1.7667,1.7667,1.7618,1.7617,1.7616,1.7615,1.7591,1.7591,1.7592,0,0,0,0,0,0,0,0,0,0,0,0,0,1.7684,1.7695,1.7691,1.7663,1.7661,1.7667,1.7667,1.7666,1.7618,1.7617,1.7615,1.7614,1.7591,1.7591,1.7592,1.7623,0,0,1.7593,1.7593,0,0,0,0,0,0,0,0,1.7685,1.7684,1.7668,1.7665,1.7662,1.7644,1.7659,1.7652,1.7619,1.7634,1.7615,1.7613,1.761,1.7609,1.7607,1.7622,1.7621,1.7593,1.7593,1.7593,1.7594,0,0,0,0,0,0,0,1.7686,1.7685,1.7682,1.7668,1.7664,1.7652,1.7649,1.7658,1.7631,1.7633,1.7629,1.7627,1.7608,1.7607,1.7607,1.7621,1.7593,1.7593,1.7594,1.7594,1.7659,1.766,0,0,0,0,0,0,1.769,1.7686,1.7682,1.7681,1.767,1.7653,1.765,1.7651,1.763,1.7626,1.7629,1.7625,1.7607,1.7606,1.7606,1.7639,1.7593,1.7594,1.7594,1.7657,1.7659,1.7661,0,0,0,0,0,0,1.7691,1.7691,1.7683,1.7682,1.7681,1.7655,1.7657,1.7652,1.765,1.7627,1.7622,1.7632,1.7606,1.7605,1.7619,1.7638,1.7594,1.7594,1.7655,1.7658,1.766,1.7708,0,0,0,0,0,0,1.7691,1.7691,1.7703,1.7683,1.7681,1.7697,1.7658,1.7652,1.7651,1.7647,1.7629,1.7625,1.7605,1.7619,1.7619,1.7637,1.7595,1.7654,1.7657,1.7659,1.7705,1.7712,1.7718,0,0,0,0,0,1.7691,1.7718,1.7703,1.7703,1.7695,1.7698,1.7697,1.7673,1.7653,1.7664,1.7649,1.7626,1.7636,1.762,1.7621,1.7639,1.7652,1.7656,1.7659,1.7702,1.771,1.7718,0,0,0,0,0,0,1.774,1.7714,1.7698,1.7719,1.7711,1.769,1.7703,1.7683,1.7681,1.7676,1.7647,1.7643,1.7661,1.7652,1.7635,1.7668,1.764,1.7644,1.7673,1.7681,1.7687,1.7688,1.7595,0,0,0,0,0,1.7754,1.7758,1.7736,1.7756,1.7753,1.7729,1.773,1.7712,1.7703,1.7699,1.7685,1.7677,1.7678,1.7679,1.768,1.7704,1.7699,1.7717,1.7724,1.7729,1.7732,1.7742,1.775,1.7672,1.7672,1.7672,0,0,1.7781,1.7767,1.7772,1.7766,1.7757,1.7763,1.7727,1.7734,1.7737,1.77,1.7711,1.7701,1.769,1.7709,1.7717,1.7702,1.7753,1.7734,1.7738,1.7738,1.7747,1.7754,1.7761,1.7674,1.7673,1.7673,0,0,1.7832,1.7824,1.7838,1.7831,1.7819,1.7803,1.7807,1.7789,1.778,1.7791,1.7763,1.7767,1.7771,1.7763,1.776,1.7809,1.7787,1.7811,1.7844,1.7854,1.786,1.7866,1.7881,1.7887,1.7814,1.7814,1.7814,0,1.7867,1.7874,1.7849,1.7858,1.7855,1.7822,1.7837,1.7831,1.782,1.7818,1.7803,1.7805,1.7796,1.7811,1.7823,1.7823,1.7825,1.7811,1.7862,1.7867,1.7871,1.7885,1.7891,1.7817,1.7816,1.7816,1.7816,0,1.7916,1.7922,1.7936,1.7925,1.7924,1.7936,1.7913,1.7915,1.7898,1.7884,1.7895,1.7883,1.7879,1.7882,1.7866,1.7895,1.7886,1.7867,1.7838,1.7882,1.7894,1.79,1.7821,1.782,1.7819,1.7818,0,0,1.7996,1.7972,1.7977,1.7971,1.7955,1.7959,1.797,1.7966,1.7967,1.7962,1.7968,1.7972,1.7953,1.795,1.7933,1.7942,1.798,1.7921,1.792,1.793,1.8009,1.8022,1.8029,1.7966,1.7967,1.7968,1.8009,0,1.8042,1.8057,1.8035,1.8056,1.8059,1.8029,1.8038,1.8029,1.8016,1.8018,1.8004,1.8006,1.7982,1.798,1.7988,1.7973,1.7995,1.797,1.797,1.7971,1.7971,1.8036,1.805,1.809,1.8014,1.8015,1.8016,0,1.8097,1.8092,1.8113,1.8095,1.8096,1.8105,1.8099,1.8101,1.8091,1.8081,1.8077,1.8056,1.8065,1.8039,1.8049,1.8033,1.8033,1.8026,1.8026,1.8023,1.7994,1.8032,1.8102,1.8107,1.8024,1.8023,1.8023,0,1.8149,1.8149,1.8161,1.8158,1.8138,1.8144,1.8137,1.8125,1.8124,1.8119,1.8118,1.8115,1.8112,1.811,1.8089,1.8072,1.8102,1.8074,1.8092,1.8093,1.8097,1.8097,1.8165,1.8102,1.8102,1.8101,1.8101,0,1.8201,1.8214,1.8184,1.8191,1.8205,1.818,1.8195,1.8184,1.8174,1.8178,1.8152,1.8157,1.813,1.8131,1.8115,1.8125,1.8125,1.8116,1.8111,1.8117,1.8118,1.8114,1.811,1.8103,1.8103,1.8102,1.8102,0,1.8261,1.8242,1.8252,1.8233,1.8229,1.8239,1.8223,1.8228,1.8215,1.822,1.822,1.8198,1.8198,1.8178,1.8174,1.8163,1.8179,1.8171,1.8183,1.8179,1.8197,1.8194,1.8263,1.827,1.8205,1.8205,1.8206,0,1.8294,1.8303,1.8285,1.8286,1.8279,1.8281,1.828,1.8256,1.8256,1.8245,1.8251,1.825,1.8246,1.8248,1.8232,1.8229,1.8218,1.8243,1.8218,1.8223,1.8216,1.8214,1.8214,1.8247,1.8248,1.8249,1.8249,0,1.8354,1.8344,1.8342,1.8338,1.8337,1.8332,1.8326,1.8328,1.8302,1.8303,1.8303,1.8301,1.8297,1.8295,1.8289,1.828,1.826,1.8258,1.8261,1.8266,1.8271,1.8266,1.8194,1.8256,1.8255,1.8255,1.8254,1.8254,1.8399,1.8405,1.8393,1.8393,1.8386,1.838,1.8384,1.8371,1.837,1.8365,1.8352,1.8353,1.8342,1.8332,1.8326,1.8326,1.8314,1.832,1.8321,1.8322,1.8324,1.8273,1.8325,1.8325,1.8325,1.8325,1.8325,0,1.8455,1.8446,1.8446,1.8438,1.8437,1.8419,1.8411,1.8412,1.8414,1.8405,1.8403,1.8402,1.84,1.8384,1.838,1.8384,1.8374,1.8383,1.8381,1.8379,1.8336,1.8333,1.8391,1.8391,1.8391,1.8391,1.8391,1.8391,1.8484,1.8493,1.8482,1.8487,1.8478,1.8479,1.8476,1.8471,1.8464,1.8464,1.8462,1.8452,1.844,1.8435,1.8432,1.8427,1.8426,1.8438,1.843,1.8389,1.8383,1.8377,1.8373,1.8438,1.8438,1.8472,1.8473,1.8473]}]]